| time (UTC) | temp F | wind direction | speed knots | gust knots | rain 1hr in | rain 24hr in | rain mn in | humidity % | barometer mb |
| 20260906022806 | 77 | 92 | 0.9 | 0.9 | 0.00 | 0.00 | 0.00 | 83 | 1013.5 |
| 20260906022307 | 77 | 52 | 0.9 | 0.9 | 0.00 | 0.00 | 0.00 | 83 | 1013.5 |
| 20260906021806 | 77 | 278 | 0.0 | 0.9 | 0.00 | 0.00 | 0.00 | 84 | 1013.4 |
| 20260906021305 | 77 | 134 | 0.0 | 0.9 | 0.00 | 0.00 | 0.00 | 83 | 1013.4 |
| 20260906020805 | 77 | 279 | 0.0 | 0.9 | 0.00 | 0.00 | 0.00 | 82 | 1013.2 |
| 20260906015806 | 77 | 253 | 0.0 | 1.7 | 0.00 | 0.00 | 0.00 | 83 | 1013.2 |
| 20260906015306 | 77 | 215 | 0.9 | 1.7 | 0.00 | 0.00 | 0.00 | 83 | 1013.1 |
| 20260906014806 | 77 | 141 | 0.9 | 0.9 | 0.00 | 0.00 | 0.00 | 82 | 1013.0 |
| 20260906014305 | 78 | 118 | 0.9 | 0.9 | 0.00 | 0.00 | 0.00 | 80 | 1012.8 |
| 20260906013805 | 78 | 46 | 0.9 | 0.9 | 0.00 | 0.00 | 0.00 | 80 | 1012.6 |
| 20260906013306 | 78 | 114 | 0.9 | 0.9 | 0.00 | 0.00 | 0.00 | 79 | 1012.5 |
| 20260906012806 | 78 | 125 | 0.0 | 0.0 | 0.00 | 0.00 | 0.00 | 79 | 1012.3 |
| 20260906012306 | 78 | 92 | 0.0 | 0.0 | 0.00 | 0.00 | 0.00 | 80 | 1012.4 |
| 20260906011806 | 78 | 90 | 0.0 | 0.9 | 0.00 | 0.00 | 0.00 | 80 | 1012.5 |
| 20260906011305 | 78 | 158 | 0.0 | 0.9 | 0.00 | 0.00 | 0.00 | 79 | 1012.5 |
| 20260906010806 | 78 | 296 | 0.0 | 0.9 | 0.00 | 0.00 | 0.00 | 80 | 1012.5 |
| 20260906010306 | 78 | 135 | 0.0 | 0.9 | 0.00 | 0.00 | 0.00 | 78 | 1012.4 |
| 20260906005306 | 79 | 227 | 0.0 | 0.9 | 0.00 | 0.00 | 0.00 | 77 | 1012.4 |
| 20260906004306 | 80 | 190 | 0.9 | 1.7 | 0.00 | 0.00 | 0.00 | 77 | 1012.3 |
| 20260906003305 | 80 | 34 | 0.9 | 1.7 | 0.00 | 0.00 | 0.00 | 75 | 1012.3 |
| 20260906002806 | 81 | 298 | 1.7 | 1.7 | 0.00 | 0.00 | 0.00 | 73 | 1012.5 |
| 20260906002306 | 81 | 129 | 0.9 | 0.9 | 0.00 | 0.00 | 0.00 | 74 | 1012.4 |
| 20260906001805 | 81 | 186 | 0.9 | 0.9 | 0.00 | 0.00 | 0.00 | 75 | 1012.5 |
| 20260906001306 | 81 | 310 | 0.0 | 0.9 | 0.00 | 0.00 | 0.00 | 76 | 1012.5 |
| 20260906000806 | 81 | 307 | 0.9 | 1.7 | 0.00 | 0.00 | 0.00 | 74 | 1012.6 |
| 20260906000306 | 81 | 300 | 0.9 | 1.7 | 0.00 | 0.00 | 0.00 | 74 | 1013.0 |
| 20260905235306 | 82 | 325 | 1.7 | 1.7 | 0.00 | 0.00 | 0.00 | 73 | 1013.3 |
| 20260905234805 | 82 | 125 | 0.9 | 1.7 | 0.00 | 0.00 | 0.00 | 73 | 1013.4 |
| 20260905233806 | 84 | 299 | 1.7 | 5.2 | 0.00 | 0.00 | 0.00 | 69 | 1013.4 |
| 20260905233306 | 84 | 115 | 0.9 | 1.7 | 0.00 | 0.00 | 0.00 | 70 | 1013.4 |
| 20260905232805 | 85 | 26 | 0.9 | 1.7 | 0.00 | 0.00 | 0.00 | 69 | 1013.3 |
| 20260905231805 | 85 | 102 | 0.9 | 1.7 | 0.00 | 0.00 | 0.00 | 66 | 1013.1 |
| 20260905231313 | 86 | 270 | 0.9 | 1.7 | 0.00 | 0.00 | 0.03 | 65 | 1013.1 |